Lexington Weather

Lexington, Massachusetts, USA

29°F
12/12/2019 3:54pm 
  • Lexington Conditions: Partly cloudy
  • Temperature: 28.6°F / -1.9°CColder 0.7°F than last hour.
  • Dew Point: 19.8°F 
  • Relative Humidity: 69%Increased 2.0% since last hour.
  • Wind: Wind from SSW SSW 1 mph, 10-min avg: 1 mph, gust: 3 mph
  • Barometer: 30.65 in Steady
  • Visibility: 10 miles
  • Snow Today: 0.0 in
  •   

Regional Weather Roundup
for Boston / Norton, MA

        
000
ASUS41 KBOX 120800
RWRBOX

REGIONAL WEATHER ROUNDUP
NATIONAL WEATHER SERVICE BOSTON/NORTON MA
300 AM EST THU DEC 12 2019

NOTE:  "FAIR" INDICATES FEW OR NO CLOUDS BELOW 12,000 FEET WITH NO 
SIGNIFICANT WEATHER AND/OR OBSTRUCTIONS TO VISIBILITY.

MAZALL-120900-
EASTERN MASSACHUSETTS
  
CITY           SKY/WX    TMP DP  RH WIND       PRES   REMARKS
BOSTON         FAIR      29  13  51 W18G28    30.48R WCI  16          
BEVERLY        FAIR      26  15  63 NW8       30.46R WCI  18          
LAWRENCE       FAIR      25  14  63 NW8       30.49R WCI  16          
BEDFORD        FAIR      24  13  62 W7        30.47R WCI  16          
BLUE HILL        N/A     21  15  78 W14G25    30.42R WCI   8          
NORWOOD        FAIR      27  14  58 W9        30.48R WCI  18          
MARSHFIELD     NOT AVBL                                               
PLYMOUTH       FAIR      24  17  74 NW8       30.47R WCI  15          
TAUNTON        FAIR      25  15  66 NW5       30.48R WCI  19          
NEW BEDFORD    FAIR      25  16  68 NW10      30.48R WCI  15          
$$

MAZALL-120900-
CAPE COD AND THE ISLANDS
  
CITY           SKY/WX    TMP DP  RH WIND       PRES   REMARKS
FALMOUTH       CLEAR     25  18  74 NW7       30.47R WCI  17          
HYANNIS        NOT AVBL                                               
CHATHAM        FAIR      29  21  72 NW9       30.46R WCI  20          
PROVINCETOWN   FAIR      30  21  69 NW17G28   30.47R WCI  18          
NANTUCKET      FAIR      32  17  54 NW23G31   30.46R WCI  19          
MARTHAS VNYRD  FAIR      29  14  53 NW17G24   30.48R WCI  17          
$$
 
MAZALL-120900-
CENTRAL AND WESTERN MASSACHUSETTS
  
CITY           SKY/WX    TMP DP  RH WIND       PRES   REMARKS
WORCESTER      FAIR      20   9  62 W10       30.42S WCI   9          
FITCHBURG      FAIR      18  12  77 CALM      30.48R                  
ORANGE         FAIR      25   8  48 NW15      30.48R WCI  13          
SPRINGFIELD    FAIR      22   9  58 W7        30.51R WCI  13          
WESTFIELD      FAIR      23   9  55 CALM      30.52R                  
NORTH ADAMS    FAIR      22  10  60 W13G22    30.49R WCI  10          
PITTSFIELD     FAIR      19   9  65 W16G26    30.45R WCI   4          
$$
 
RIZALL-120900-
RHODE ISLAND
  
CITY           SKY/WX    TMP DP  RH WIND       PRES   REMARKS
PROVIDENCE     FAIR      26  12  55 NW13G23   30.50R WCI  15          
NEWPORT        FAIR      28  13  53 NW20G25   30.49R WCI  15          
BLOCK ISLAND   FAIR      27  17  66 N14G23    30.51R WCI  16          
SMITHFIELD     FAIR      22  13  68 NW8G16    30.48R WCI  12          
WESTERLY       FAIR      28  14  55 NW9       30.51R WCI  19          
$$
 
CTZALL-120900-
CONNECTICUT
  
CITY           SKY/WX    TMP DP  RH WIND       PRES   REMARKS
BRADLEY INTL   FAIR      22   8  55 NW8       30.54R WCI  12          
HARTFORD       FAIR      27   9  46 NW8       30.55R WCI  19          
BRIDGEPORT     FAIR      28  13  53 NW7       30.57R WCI  21          
DANBURY        FAIR      19  11  70 CALM      30.56R                  
GROTON         NOT AVBL                                               
NEW HAVEN      FAIR      30  13  49 NW10      30.56R WCI  21          
CHESTER        FAIR      25   9  50 NW8G15    30.52R WCI  16          
MERIDEN        FAIR      25   8  48 VRB7      30.56R WCI  17          
WILLIMANTIC    FAIR      24  10  55 NW3       30.54R                  
OXFORD         FAIR      21  11  65 NW5       30.52R WCI  15          
$$

MEZ002-015-021-024-NHZ003-005-008-011-012-014-VTZ005-008-120900-
NORTHERN NEW ENGLAND
  
CITY           SKY/WX    TMP DP  RH WIND       PRES   REMARKS
PORTLAND ME    FAIR      27   7  42 W17G26    30.42R WCI  14          
BANGOR ME      FAIR      22  13  68 VRB6      30.33R WCI  14          
CONCORD NH     FAIR      23   4  44 NW10      30.45R WCI  12          
MANCHESTER NH  FAIR      26   7  44 NW12      30.46R WCI  16          
NASHUA NH      FAIR      24  16  71 W7        30.48R WCI  16          
PORTSMOUTH NH  PTCLDY    25   5  43 W7        30.44R WCI  17          
JAFFREY NH     FAIR      21   4  47 W10       30.43R WCI  10          
KEENE NH       FAIR      21   5  50 CALM      30.48R                  
BURLINGTON VT  FAIR      21  12  68 W7        30.48R WCI  12          
MT. WASHINGTON NOT AVBL                                               
$$

NYZ052-076-120900-
EASTERN NEW YORK
  
CITY           SKY/WX    TMP DP  RH WIND       PRES   REMARKS
ALBANY         FAIR      22  11  62 W3        30.56R                  
NEW YORK CITY  FAIR      31  13  47 NW13      30.59R WCI  21          
$$
 
ANZALL-120900-
MARINE OBSERVATIONS
  
STATION/POSITION TIME  TEMP    WIND        PRES    VSBY  WAVE
                       AIR SEA DIR/SP/G                  HT/PER
                 (UTC) (F)     (DEG/KT/KT) (MB)    (MI)  (FT/S)
BOSTON BUOY      0650   33 47  290/ 23/ 29 1029.6          4/ 4
BUZZARDS BAY     0700   32     320/ 24/ 26 1032.2R
NANTUCKET SOUND  0710   34                   N/A
MASS BAY-STELLWA 0704   32 45  320/ 19/ 23 1028.9R  1 7/8  3/ 4
ISLE OF SHOALS   0700   30     270/ 23/ 27 1029.2R
S OF BLOCK IS    0730      52                N/A           7/ 7
$$

......................KEY.........................
  SKY/WX - SKY CONDITION/PRESENT WEATHER
  TMP    - TEMPERATURE IN FAHRENHEIT
  DWPT   - DEWPOINT IN FAHRENHEIT
  RH     - RELATIVE HUMIDITY IN PERCENT
  WIND   - DIRECTION AND SPEED IN MPH
  PRES   - MEAN SEA LEVEL PRESSURE IN INCHES OF HG
  WCI    - WIND CHILL INDEX
  VSB    - VISIBILITY IN MILES
  HX     - HEAT INDEX
  TC     - TEMPERATURE IN CELSIUS
  VRB    - VARIABLE WIND DIRECTION
  N/A    - NOT AVAILABLE
  
      

Other recent Regional Weather Roundups

Thu Dec 12, 3:10pm

Thu Dec 12, 3:00pm

Thu Dec 12, 2:10pm

Thu Dec 12, 2:01pm

Thu Dec 12, 1:10pm

Thu Dec 12, 1:00pm

Thu Dec 12, 12:10pm

Thu Dec 12, 12:00pm

Thu Dec 12, 11:10am

Thu Dec 12, 11:00am

Thu Dec 12, 10:10am

Thu Dec 12, 8:10am

Thu Dec 12, 8:00am

Thu Dec 12, 7:10am

Thu Dec 12, 7:00am

Thu Dec 12, 6:10am

Thu Dec 12, 6:00am

Thu Dec 12, 5:10am

Thu Dec 12, 5:00am

Thu Dec 12, 4:10am

Thu Dec 12, 4:00am

Thu Dec 12, 3:10am

Thu Dec 12, 2:10am

Thu Dec 12, 2:00am

Thu Dec 12, 1:10am

Thu Dec 12, 1:00am

Thu Dec 12, 12:10am

Thu Dec 12, 12:00am

Wed Dec 11, 11:10pm

Wed Dec 11, 11:00pm

Wed Dec 11, 10:10pm

Wed Dec 11, 10:00pm

Wed Dec 11, 9:10pm

Wed Dec 11, 9:00pm

Wed Dec 11, 8:10pm

Wed Dec 11, 8:00pm

Wed Dec 11, 7:10pm

Wed Dec 11, 7:00pm

Wed Dec 11, 6:10pm

Wed Dec 11, 6:00pm

Wed Dec 11, 5:10pm

Wed Dec 11, 5:01pm

Wed Dec 11, 4:10pm

Wed Dec 11, 4:00pm

Wed Dec 11, 3:10pm

Wed Dec 11, 3:01pm

Wed Dec 11, 2:10pm

Wed Dec 11, 2:00pm

Wed Dec 11, 1:10pm

Wed Dec 11, 1:00pm

Wed Dec 11, 12:10pm

Wed Dec 11, 12:00pm

Wed Dec 11, 11:10am

Wed Dec 11, 11:00am

Wed Dec 11, 10:10am

Wed Dec 11, 10:00am

Wed Dec 11, 9:10am

Wed Dec 11, 9:00am

Wed Dec 11, 8:10am

Wed Dec 11, 8:00am

Wed Dec 11, 7:10am

Wed Dec 11, 7:00am

Wed Dec 11, 6:10am

Wed Dec 11, 6:00am

Wed Dec 11, 5:10am

Wed Dec 11, 5:00am

Wed Dec 11, 4:10am

Wed Dec 11, 4:00am

Wed Dec 11, 3:10am

Wed Dec 11, 3:01am

Wed Dec 11, 2:10am

Wed Dec 11, 2:01am

Wed Dec 11, 1:10am

Wed Dec 11, 1:00am

Wed Dec 11, 12:10am

Wed Dec 11, 12:00am

Tue Dec 10, 11:10pm

Tue Dec 10, 11:00pm

Tue Dec 10, 10:10pm

Tue Dec 10, 10:00pm

Tue Dec 10, 9:10pm

Tue Dec 10, 9:01pm

Tue Dec 10, 8:10pm

Tue Dec 10, 8:00pm

Tue Dec 10, 7:10pm

Tue Dec 10, 7:01pm

Tue Dec 10, 6:10pm

Tue Dec 10, 6:01pm

Tue Dec 10, 5:10pm

Tue Dec 10, 5:00pm

Tue Dec 10, 4:10pm

Tue Dec 10, 4:01pm

Tue Dec 10, 3:10pm

Tue Dec 10, 3:01pm

Tue Dec 10, 2:10pm

Tue Dec 10, 2:01pm

Tue Dec 10, 1:10pm

Tue Dec 10, 1:00pm

Tue Dec 10, 12:10pm

Tue Dec 10, 12:00pm

Tue Dec 10, 11:10am

Tue Dec 10, 11:00am

Tue Dec 10, 10:10am

Tue Dec 10, 10:00am

Tue Dec 10, 9:10am

Tue Dec 10, 9:01am

Tue Dec 10, 8:10am

Tue Dec 10, 8:00am

Tue Dec 10, 7:10am

Tue Dec 10, 7:00am

Tue Dec 10, 6:10am

Tue Dec 10, 6:00am

Tue Dec 10, 5:10am

Tue Dec 10, 5:00am

Tue Dec 10, 4:10am

Tue Dec 10, 4:00am

Tue Dec 10, 3:10am

Tue Dec 10, 3:00am

Tue Dec 10, 2:10am

Tue Dec 10, 2:01am

Tue Dec 10, 1:10am

Tue Dec 10, 1:00am

Tue Dec 10, 12:10am

Tue Dec 10, 12:01am

Mon Dec 9, 11:10pm

Mon Dec 9, 11:01pm

Mon Dec 9, 10:10pm

Mon Dec 9, 10:00pm

Mon Dec 9, 9:10pm

Mon Dec 9, 9:01pm

Mon Dec 9, 8:10pm

Mon Dec 9, 8:01pm

Mon Dec 9, 7:10pm

Mon Dec 9, 7:00pm

Mon Dec 9, 6:10pm

Mon Dec 9, 6:00pm

Mon Dec 9, 5:10pm

Mon Dec 9, 5:01pm

Mon Dec 9, 4:10pm

Mon Dec 9, 4:01pm

Meta data:

ID: 2127004f-ecbd-4361-8432-9e71badf8205
Link: https://api.weather.gov/products/2127004f-ecbd-4361-8432-9e71badf8205